,,,PA_Meas_PMT16A,,PR_Meas_QMR101_102,,RH_Meas_QMH101,,SR_Meas_QMS101,,TA_Meas_QMH101,,GenWind,,GenWind,
date,time,status,PA,status,PR,status,RH,status,SR,status,TA,status,DirAvg,status,SpdAvg,
2009-06-26, 00:00:05,VALID,1004.11,VALID,0,VALID,89.7309,VALID,0,VALID,25.2202,VALID,20,VALID,0.7,
2009-06-26, 00:01:05,VALID,1004.15,VALID,0,VALID,89.2045,VALID,0,VALID,25.2397,VALID,19,VALID,0.497656,
2009-06-26, 00:02:05,VALID,1004.15,VALID,0,VALID,89.2808,VALID,0,VALID,25.2397,VALID,29,VALID,0.9375,
2009-06-26, 00:03:05,VALID,1004.16,VALID,0,VALID,89.029,VALID,0,VALID,25.3,VALID,35,VALID,0.168359,
2009-06-26, 00:04:05,VALID,1004.16,VALID,0,VALID,88.8536,VALID,0,VALID,25.337,VALID,27,VALID,0.697266,
2009-06-26, 00:05:05,VALID,1004.16,VALID,0,VALID,88.6476,VALID,0,VALID,25.3565,VALID,33,VALID,0.408594,
2009-06-26, 00:06:04,VALID,1004.15,VALID,0,VALID,88.4798,VALID,0.100563,VALID,25.376,VALID,43,VALID,0.654297,
2009-06-26, 00:07:04,VALID,1004.14,VALID,0,VALID,88.4187,VALID,0.100563,VALID,25.3955,VALID,41,VALID,0.667969,
2009-06-26, 00:08:04,VALID,1004.13,VALID,0,VALID,88.2509,VALID,0,VALID,25.4149,VALID,40,VALID,0.532031,
2009-06-26, 00:09:04,VALID,1004.11,VALID,0,VALID,88.2738,VALID,0,VALID,25.376,VALID,42,VALID,0.635156,
2009-06-26, 00:10:04,VALID,1004.09,VALID,0,VALID,88.3577,VALID,0.100563,VALID,25.3565,VALID,21,VALID,0.641406,
2009-06-26, 00:11:04,VALID,1004.11,VALID,0,VALID,88.3119,VALID,0,VALID,25.376,VALID,14,VALID,0.388672,
2009-06-26, 00:12:04,VALID,1004.08,VALID,0,VALID,88.228,VALID,0,VALID,25.3779,VALID,14,VALID,0.528906,
2009-06-26, 00:13:04,VALID,1004.1,VALID,0,VALID,88.3119,VALID,0,VALID,25.3584,VALID,23,VALID,0.447656,
2009-06-26, 00:14:04,VALID,1004.06,VALID,0,VALID,88.3729,VALID,0,VALID,25.3195,VALID,23,VALID,0.726172,
2009-06-26, 00:15:04,VALID,1004.07,VALID,0,VALID,88.3958,VALID,0,VALID,25.339,VALID,18,VALID,0.466406,
2009-06-26, 00:16:04,VALID,1004.05,VALID,0,VALID,88.2051,VALID,0,VALID,25.4169,VALID,12,VALID,0.875391,
2009-06-26, 00:17:04,VALID,1004.01,VALID,0,VALID,87.8923,VALID,0,VALID,25.4948,VALID,39,VALID,0.494531,
2009-06-26, 00:18:04,VALID,1003.97,VALID,0,VALID,87.6558,VALID,0,VALID,25.4753,VALID,39,VALID,0.314453,
2009-06-26, 00:19:04,VALID,1003.96,VALID,0,VALID,87.6635,VALID,0,VALID,25.4967,VALID,59,VALID,0.503906,
2009-06-26, 00:20:04,VALID,1003.96,VALID,0,VALID,87.6711,VALID,0,VALID,25.4539,VALID,43,VALID,0.232812,
2009-06-26, 00:21:04,VALID,1003.95,VALID,0,VALID,87.6177,VALID,0,VALID,25.4967,VALID,45,VALID,0.347656,
2009-06-26, 00:22:04,VALID,1003.96,VALID,0,VALID,87.6024,VALID,0,VALID,25.4363,VALID,71,VALID,0.622266,
2009-06-26, 00:23:04,VALID,1003.99,VALID,0,VALID,87.755,VALID,0,VALID,25.3993,VALID,66,VALID,0.491797,
2009-06-26, 00:24:04,VALID,1003.98,VALID,0,VALID,87.9991,VALID,0,VALID,25.3604,VALID,66,VALID,0.321094,
2009-06-26, 00:25:04,VALID,1004.01,VALID,0,VALID,88.022,VALID,0,VALID,25.3019,VALID,66,VALID,0.212891,
2009-06-26, 00:26:04,VALID,1004.05,VALID,0,VALID,88.228,VALID,0,VALID,25.224,VALID,66,VALID,0.102344,
2009-06-26, 00:27:04,VALID,1004,VALID,0,VALID,88.6171,VALID,0,VALID,25.1618,VALID,66,VALID,0.439844,
2009-06-26, 00:28:04,VALID,1004.05,VALID,0,VALID,88.7697,VALID,0,VALID,25.1229,VALID,66,VALID,0.272266,
2009-06-26, 00:29:04,VALID,1004.01,VALID,0,VALID,88.8231,VALID,0,VALID,25.0644,VALID,66,VALID,0.129297,
2009-06-26, 00:30:04,VALID,1004,VALID,0,VALID,89.0443,VALID,0,VALID,25.006,VALID,65,VALID,0.255469,
2009-06-26, 00:31:04,VALID,1003.99,VALID,0,VALID,89.235,VALID,0,VALID,24.9671,VALID,65,VALID,0.203516,
2009-06-26, 00:32:04,VALID,1003.97,VALID,0,VALID,89.6699,VALID,0,VALID,24.9866,VALID,69,VALID,0.417969,
2009-06-26, 00:33:04,VALID,1003.97,VALID,0,VALID,89.647,VALID,0.100563,VALID,25.0079,VALID,44,VALID,0.234766,
2009-06-26, 00:34:04,VALID,1004.01,VALID,0,VALID,89.7843,VALID,0,VALID,24.9282,VALID,44,VALID,0.208203,
2009-06-26, 00:35:04,VALID,1003.97,VALID,0,VALID,89.9369,VALID,0.100563,VALID,24.9282,VALID,44,VALID,0.258203,
2009-06-26, 00:36:04,VALID,1004,VALID,0,VALID,90.0208,VALID,0,VALID,24.93,VALID,44,VALID,0.00117188,
2009-06-26, 00:37:04,VALID,1003.98,VALID,0,VALID,89.9903,VALID,0.100563,VALID,24.8892,VALID,44,VALID,0.00585938,
2009-06-26, 00:38:04,VALID,1003.97,VALID,0,VALID,90.0513,VALID,0.100563,VALID,24.8503,VALID,44,VALID,0,
2009-06-26, 00:39:04,VALID,1003.95,VALID,0,VALID,90.1429,VALID,0,VALID,24.79,VALID,44,VALID,0.00078125,
2009-06-26, 00:40:04,VALID,1003.96,VALID,0,VALID,90.2191,VALID,0,VALID,24.7724,VALID,44,VALID,0.126563,
2009-06-26, 00:41:04,VALID,1003.91,VALID,0,VALID,90.387,VALID,0,VALID,24.7335,VALID,44,VALID,0,
2009-06-26, 00:42:04,VALID,1003.89,VALID,0,VALID,90.4785,VALID,0,VALID,24.6769,VALID,44,VALID,0,
2009-06-26, 00:43:04,VALID,1003.87,VALID,0,VALID,90.5853,VALID,0,VALID,24.6185,VALID,44,VALID,0.003125,
2009-06-26, 00:44:04,VALID,1003.81,VALID,0,VALID,90.6845,VALID,0,VALID,24.5796,VALID,44,VALID,0.139453,
2009-06-26, 00:45:04,VALID,1003.8,VALID,0,VALID,90.8523,VALID,0,VALID,24.523,VALID,44,VALID,0.189844,
2009-06-26, 00:46:04,VALID,1003.8,VALID,0,VALID,91.0583,VALID,0,VALID,24.4628,VALID,44,VALID,0.280469,
2009-06-26, 00:47:04,VALID,1003.74,VALID,0,VALID,91.2109,VALID,0,VALID,24.4451,VALID,44,VALID,0.102734,
2009-06-26, 00:48:04,VALID,1003.76,VALID,0,VALID,91.3482,VALID,0,VALID,24.3654,VALID,44,VALID,0.00820312,
2009-06-26, 00:49:04,VALID,1003.75,VALID,0,VALID,91.6,VALID,0,VALID,24.3459,VALID,44,VALID,0,
2009-06-26, 00:50:04,VALID,1003.75,VALID,0,VALID,91.7831,VALID,0,VALID,24.307,VALID,44,VALID,0,
2009-06-26, 00:51:04,VALID,1003.74,VALID,0,VALID,91.9051,VALID,0,VALID,24.2875,VALID,44,VALID,0.0996094,
2009-06-26, 00:52:04,VALID,1003.76,VALID,0,VALID,92.0043,VALID,0,VALID,24.2699,VALID,44,VALID,0,
2009-06-26, 00:53:04,VALID,1003.76,VALID,0,VALID,92.1111,VALID,0,VALID,24.2291,VALID,44,VALID,0.0589844,
2009-06-26, 00:54:04,VALID,1003.73,VALID,0,VALID,92.2103,VALID,0,VALID,24.1902,VALID,44,VALID,0,
2009-06-26, 00:55:04,VALID,1003.74,VALID,0,VALID,92.3171,VALID,0,VALID,24.1902,VALID,44,VALID,0,
2009-06-26, 00:56:04,VALID,1003.72,VALID,0,VALID,92.4315,VALID,0,VALID,24.192,VALID,44,VALID,0,
2009-06-26, 00:57:04,VALID,1003.75,VALID,0,VALID,92.5154,VALID,0,VALID,24.1494,VALID,44,VALID,0,
2009-06-26, 00:58:04,VALID,1003.73,VALID,0,VALID,92.6604,VALID,0.100563,VALID,24.13,VALID,44,VALID,0,
2009-06-26, 00:59:04,VALID,1003.69,VALID,0,VALID,92.7901,VALID,0.100563,VALID,24.13,VALID,44,VALID,0,
2009-06-26, 01:00:04,VALID,1003.7,VALID,0,VALID,92.8511,VALID,0.100563,VALID,24.13,VALID,44,VALID,0,
2009-06-26, 01:01:04,VALID,1003.65,VALID,0,VALID,92.9579,VALID,0,VALID,24.1105,VALID,44,VALID,0.275391,
2009-06-26, 01:02:04,VALID,1003.66,VALID,0,VALID,92.9961,VALID,0,VALID,24.091,VALID,44,VALID,0.209766,
2009-06-26, 01:03:04,VALID,1003.69,VALID,0,VALID,93.1029,VALID,0,VALID,24.091,VALID,44,VALID,0.580078,
2009-06-26, 01:04:04,VALID,1003.69,VALID,0,VALID,93.1715,VALID,0.100563,VALID,24.0929,VALID,44,VALID,0.237891,
2009-06-26, 01:05:04,VALID,1003.7,VALID,0,VALID,93.3317,VALID,0.100563,VALID,24.1123,VALID,44,VALID,0.139453,
2009-06-26, 01:06:04,VALID,1003.73,VALID,0,VALID,93.4156,VALID,0.100563,VALID,24.1105,VALID,44,VALID,0.00195313,
2009-06-26, 01:07:04,VALID,1003.74,VALID,0,VALID,93.4614,VALID,0.100563,VALID,24.13,VALID,44,VALID,0,
2009-06-26, 01:08:04,VALID,1003.76,VALID,0,VALID,93.4843,VALID,0.100563,VALID,24.1494,VALID,44,VALID,0,
2009-06-26, 01:09:04,VALID,1003.81,VALID,0,VALID,93.4385,VALID,0.100563,VALID,24.1105,VALID,44,VALID,0.330469,
2009-06-26, 01:10:04,VALID,1003.84,VALID,0,VALID,93.4614,VALID,0.100563,VALID,24.091,VALID,44,VALID,0.210156,
2009-06-26, 01:11:04,VALID,1003.82,VALID,0,VALID,93.4614,VALID,0.100563,VALID,24.0716,VALID,44,VALID,0.142578,
2009-06-26, 01:12:04,VALID,1003.8,VALID,0,VALID,93.469,VALID,0,VALID,24.0539,VALID,44,VALID,0,
2009-06-26, 01:13:04,VALID,1003.78,VALID,0,VALID,93.5301,VALID,0,VALID,24.0345,VALID,44,VALID,0.302734,
2009-06-26, 01:14:04,VALID,1003.78,VALID,0,VALID,93.6216,VALID,0,VALID,24.0557,VALID,44,VALID,0.195703,
2009-06-26, 01:15:04,VALID,1003.78,VALID,0,VALID,93.4767,VALID,0,VALID,23.9955,VALID,44,VALID,0.533203,
2009-06-26, 01:16:04,VALID,1003.79,VALID,0,VALID,93.469,VALID,0,VALID,23.9584,VALID,44,VALID,0.285937,
2009-06-26, 01:17:04,VALID,1003.81,VALID,0,VALID,93.4309,VALID,0,VALID,23.9177,VALID,44,VALID,0.260938,
2009-06-26, 01:18:04,VALID,1003.8,VALID,0,VALID,93.4767,VALID,0,VALID,23.8593,VALID,44,VALID,0.398828,
2009-06-26, 01:19:04,VALID,1003.8,VALID,0,VALID,93.5758,VALID,0,VALID,23.8398,VALID,44,VALID,0.316016,
2009-06-26, 01:20:04,VALID,1003.81,VALID,0,VALID,93.7361,VALID,0,VALID,23.8398,VALID,44,VALID,0.408203,
2009-06-26, 01:21:04,VALID,1003.81,VALID,0,VALID,93.8734,VALID,0,VALID,23.8787,VALID,44,VALID,0.350781,
2009-06-26, 01:22:04,VALID,1003.83,VALID,0,VALID,93.9497,VALID,0,VALID,23.8787,VALID,42,VALID,0.388672,
2009-06-26, 01:23:04,VALID,1003.86,VALID,0,VALID,93.8352,VALID,0,VALID,23.8593,VALID,42,VALID,0.294141,
2009-06-26, 01:24:04,VALID,1003.86,VALID,0,VALID,93.8734,VALID,0,VALID,23.8398,VALID,42,VALID,0.304297,
2009-06-26, 01:25:04,VALID,1003.89,VALID,0,VALID,93.9115,VALID,0,VALID,23.8203,VALID,42,VALID,0.319922,
2009-06-26, 01:26:04,VALID,1003.9,VALID,0,VALID,93.9954,VALID,0,VALID,23.8398,VALID,11,VALID,0.292188,
2009-06-26, 01:27:04,VALID,1003.92,VALID,0,VALID,94.0412,VALID,0,VALID,23.8611,VALID,11,VALID,0.059375,
2009-06-26, 01:28:04,VALID,1003.91,VALID,0,VALID,94.0565,VALID,0,VALID,23.8398,VALID,11,VALID,0,
2009-06-26, 01:29:04,VALID,1003.94,VALID,0,VALID,94.0946,VALID,0,VALID,23.8398,VALID,11,VALID,0,
2009-06-26, 01:30:04,VALID,1003.92,VALID,0,VALID,94.0794,VALID,0,VALID,23.8575,VALID,11,VALID,0,
2009-06-26, 01:31:04,VALID,1003.94,VALID,0,VALID,94.0946,VALID,0,VALID,23.8593,VALID,11,VALID,0,
2009-06-26, 01:32:04,VALID,1003.98,VALID,0,VALID,94.1404,VALID,0,VALID,23.8575,VALID,7,VALID,1.11133,
2009-06-26, 01:33:04,VALID,1003.97,VALID,0,VALID,94.1328,VALID,0.100563,VALID,23.838,VALID,188,VALID,0.899219,
2009-06-26, 01:34:04,VALID,1003.97,VALID,0,VALID,94.1556,VALID,0,VALID,23.838,VALID,189,VALID,0.514453,
2009-06-26, 01:35:04,VALID,1003.99,VALID,0,VALID,94.209,VALID,0.100563,VALID,23.8575,VALID,189,VALID,0.153125,
2009-06-26, 01:36:04,VALID,1004.03,VALID,0,VALID,94.2167,VALID,0,VALID,23.8575,VALID,189,VALID,0.138281,
2009-06-26, 01:37:04,VALID,1004.01,VALID,0,VALID,94.2396,VALID,0,VALID,23.8769,VALID,189,VALID,0.119922,
2009-06-26, 01:38:04,VALID,1004,VALID,0,VALID,94.2624,VALID,0,VALID,23.8769,VALID,189,VALID,0.153125,
2009-06-26, 01:39:04,VALID,1003.98,VALID,0,VALID,94.2777,VALID,0.100563,VALID,23.8769,VALID,189,VALID,0.392969,
2009-06-26, 01:40:04,VALID,1003.97,VALID,0,VALID,94.2853,VALID,0.100563,VALID,23.8769,VALID,189,VALID,0.354297,
2009-06-26, 01:41:04,VALID,1003.96,VALID,0,VALID,94.2548,VALID,0.100563,VALID,23.8185,VALID,189,VALID,0.508203,
2009-06-26, 01:42:04,VALID,1003.92,VALID,0,VALID,94.2243,VALID,0,VALID,23.8203,VALID,188,VALID,0.378906,
2009-06-26, 01:43:04,VALID,1003.88,VALID,0,VALID,94.2243,VALID,0.100563,VALID,23.7796,VALID,188,VALID,0.197266,
2009-06-26, 01:44:04,VALID,1003.88,VALID,0,VALID,94.2472,VALID,0,VALID,23.7796,VALID,188,VALID,0.100781,
2009-06-26, 01:45:04,VALID,1003.85,VALID,0,VALID,94.3006,VALID,0,VALID,23.7796,VALID,188,VALID,0,
2009-06-26, 01:46:04,VALID,1003.85,VALID,0,VALID,94.3235,VALID,0,VALID,23.8009,VALID,188,VALID,0.256641,
2009-06-26, 01:47:04,VALID,1003.85,VALID,0,VALID,94.3616,VALID,0,VALID,23.7991,VALID,188,VALID,0,
2009-06-26, 01:48:04,VALID,1003.81,VALID,0,VALID,94.3616,VALID,0.100563,VALID,23.7991,VALID,188,VALID,0,
2009-06-26, 01:49:04,VALID,1003.83,VALID,0,VALID,94.3616,VALID,0,VALID,23.8185,VALID,188,VALID,0.0515625,
2009-06-26, 01:50:04,VALID,1003.82,VALID,0,VALID,94.3921,VALID,0,VALID,23.7991,VALID,188,VALID,0.605859,
2009-06-26, 01:51:04,VALID,1003.84,VALID,0,VALID,94.4227,VALID,0,VALID,23.8787,VALID,4,VALID,0.870703,
2009-06-26, 01:52:04,VALID,1003.82,VALID,0,VALID,94.4379,VALID,0,VALID,23.8575,VALID,360,VALID,0.773438,
2009-06-26, 01:53:04,VALID,1003.8,VALID,0,VALID,94.4455,VALID,0,VALID,23.8575,VALID,209,VALID,0.269531,
2009-06-26, 01:54:04,VALID,1003.78,VALID,0,VALID,94.4227,VALID,0,VALID,23.8769,VALID,214,VALID,0.289844,
2009-06-26, 01:55:04,VALID,1003.77,VALID,0,VALID,94.4303,VALID,0,VALID,23.8769,VALID,238,VALID,0.119141,
2009-06-26, 01:56:04,VALID,1003.74,VALID,0,VALID,94.4379,VALID,0,VALID,23.8769,VALID,8,VALID,0.675391,
2009-06-26, 01:57:04,VALID,1003.71,VALID,0,VALID,94.4379,VALID,0,VALID,23.9177,VALID,357,VALID,1.10352,
2009-06-26, 01:58:04,VALID,1003.73,VALID,0,VALID,94.3921,VALID,0,VALID,23.8575,VALID,355,VALID,1.30586,
2009-06-26, 01:59:04,VALID,1003.72,VALID,0,VALID,94.3692,VALID,0,VALID,23.8787,VALID,360,VALID,1.49609,
2009-06-26, 02:00:04,VALID,1003.78,VALID,0,VALID,94.4074,VALID,0,VALID,23.8769,VALID,14,VALID,0.753125,
2009-06-26, 02:01:04,VALID,1003.77,VALID,0,VALID,94.4837,VALID,0.100563,VALID,24.0345,VALID,23,VALID,1.16875,
2009-06-26, 02:02:04,VALID,1003.78,VALID,0,VALID,94.5447,VALID,0,VALID,24.0716,VALID,20,VALID,1.53242,
2009-06-26, 02:03:04,VALID,1003.83,VALID,0,VALID,94.4837,VALID,0,VALID,24.2097,VALID,41,VALID,1.93828,
2009-06-26, 02:04:04,VALID,1003.84,VALID,0,VALID,94.2777,VALID,0.100563,VALID,24.3052,VALID,36,VALID,1.31016,
2009-06-26, 02:05:04,VALID,1003.83,VALID,0,VALID,93.0723,VALID,0,VALID,24.4609,VALID,80,VALID,2.85781,
2009-06-26, 02:06:04,VALID,1003.84,VALID,0,VALID,91.9814,VALID,0,VALID,24.638,VALID,25,VALID,1.19258,
2009-06-26, 02:07:04,VALID,1003.79,VALID,0,VALID,90.6845,VALID,0,VALID,24.6945,VALID,6,VALID,1.27813,
2009-06-26, 02:08:04,VALID,1003.79,VALID,0,VALID,90.0742,VALID,0,VALID,24.7919,VALID,347,VALID,1.12695,
2009-06-26, 02:09:04,VALID,1003.78,VALID,0,VALID,89.5097,VALID,0,VALID,24.8113,VALID,20,VALID,0.656641,
2009-06-26, 02:10:04,VALID,1003.77,VALID,0,VALID,89.6393,VALID,0,VALID,24.8716,VALID,20,VALID,0.0332031,
2009-06-26, 02:11:04,VALID,1003.76,VALID,0,VALID,88.6247,VALID,0,VALID,24.8308,VALID,2,VALID,1.35664,
2009-06-26, 02:12:04,VALID,1003.77,VALID,0,VALID,88.9146,VALID,0,VALID,24.8716,VALID,80,VALID,0.641406,
2009-06-26, 02:13:04,VALID,1003.8,VALID,0,VALID,89.0443,VALID,0,VALID,24.8327,VALID,14,VALID,0.966016,
2009-06-26, 02:14:04,VALID,1003.79,VALID,0,VALID,88.4187,VALID,0,VALID,24.8132,VALID,358,VALID,1.69492,
2009-06-26, 02:15:04,VALID,1003.82,VALID,0,VALID,88.8688,VALID,0,VALID,24.7937,VALID,36,VALID,0.912891,
2009-06-26, 02:16:04,VALID,1003.8,VALID,0.5,VALID,89.4639,VALID,0,VALID,24.6769,VALID,1,VALID,1.07227,
2009-06-26, 02:17:04,VALID,1003.83,VALID,0.5,VALID,89.8301,VALID,0,VALID,24.5035,VALID,31,VALID,1.60352,
2009-06-26, 02:18:04,VALID,1003.79,VALID,0.5,VALID,90.6158,VALID,0,VALID,24.3265,VALID,1,VALID,1.35977,
2009-06-26, 02:19:04,VALID,1003.73,VALID,0.5,VALID,91.2262,VALID,0,VALID,24.1902,VALID,342,VALID,0.682813,
2009-06-26, 02:20:04,VALID,1003.72,VALID,0,VALID,91.8441,VALID,0,VALID,24.0929,VALID,320,VALID,0.338672,
2009-06-26, 02:21:04,VALID,1003.69,VALID,0,VALID,92.195,VALID,0,VALID,24.0363,VALID,346,VALID,0.851953,
2009-06-26, 02:22:04,VALID,1003.72,VALID,0,VALID,92.4773,VALID,0,VALID,23.9566,VALID,357,VALID,0.277734,
2009-06-26, 02:23:04,VALID,1003.74,VALID,0,VALID,92.7977,VALID,0,VALID,23.8982,VALID,283,VALID,0.753516,
2009-06-26, 02:24:04,VALID,1003.73,VALID,0,VALID,93.0113,VALID,0,VALID,23.8593,VALID,277,VALID,0.391016,
2009-06-26, 02:25:04,VALID,1003.77,VALID,0,VALID,93.2173,VALID,0,VALID,23.8805,VALID,208,VALID,0.919531,
2009-06-26, 02:26:04,VALID,1003.77,VALID,0,VALID,93.4462,VALID,0,VALID,23.8611,VALID,190,VALID,0.9875,
2009-06-26, 02:27:04,VALID,1003.8,VALID,0,VALID,93.6064,VALID,0,VALID,23.838,VALID,187,VALID,0.6,
2009-06-26, 02:28:04,VALID,1003.79,VALID,0,VALID,93.6369,VALID,0,VALID,23.8398,VALID,186,VALID,0.798047,
2009-06-26, 02:29:04,VALID,1003.75,VALID,0,VALID,93.7513,VALID,0,VALID,23.8185,VALID,161,VALID,0.968359,
2009-06-26, 02:30:04,VALID,1003.75,VALID,0,VALID,93.8047,VALID,0,VALID,23.8185,VALID,153,VALID,0.960938,
2009-06-26, 02:31:04,VALID,1003.76,VALID,0,VALID,93.881,VALID,0,VALID,23.8185,VALID,151,VALID,0.606641,
2009-06-26, 02:32:04,VALID,1003.72,VALID,0,VALID,93.9878,VALID,0,VALID,23.8185,VALID,151,VALID,0.580078,
2009-06-26, 02:33:04,VALID,1003.7,VALID,0,VALID,94.0183,VALID,0,VALID,23.7991,VALID,151,VALID,0.326172,
2009-06-26, 02:34:04,VALID,1003.74,VALID,0,VALID,94.0794,VALID,0,VALID,23.7991,VALID,151,VALID,0.483984,
2009-06-26, 02:35:04,VALID,1003.71,VALID,0,VALID,94.1251,VALID,0,VALID,23.7796,VALID,151,VALID,0.441016,
2009-06-26, 02:36:04,VALID,1003.75,VALID,0,VALID,94.1633,VALID,0,VALID,23.8203,VALID,151,VALID,0.263672,
2009-06-26, 02:37:04,VALID,1003.75,VALID,0,VALID,94.209,VALID,0,VALID,23.7796,VALID,151,VALID,0.249219,
2009-06-26, 02:38:04,VALID,1003.76,VALID,0,VALID,94.1709,VALID,0,VALID,23.7194,VALID,151,VALID,0.342187,
2009-06-26, 02:39:04,VALID,1003.76,VALID,0,VALID,94.1938,VALID,0,VALID,23.7212,VALID,151,VALID,0.196875,
2009-06-26, 02:40:04,VALID,1003.74,VALID,0,VALID,94.2548,VALID,0,VALID,23.7017,VALID,151,VALID,0.00703125,
2009-06-26, 02:41:04,VALID,1003.75,VALID,0,VALID,94.2624,VALID,0,VALID,23.6823,VALID,151,VALID,0.269922,
2009-06-26, 02:42:04,VALID,1003.76,VALID,0,VALID,94.3006,VALID,0,VALID,23.6646,VALID,151,VALID,0.33125,
2009-06-26, 02:43:04,VALID,1003.75,VALID,0,VALID,94.354,VALID,0,VALID,23.6859,VALID,151,VALID,0.307813,
2009-06-26, 02:44:04,VALID,1003.8,VALID,0,VALID,94.3692,VALID,0,VALID,23.6452,VALID,151,VALID,0.373047,
2009-06-26, 02:45:04,VALID,1003.79,VALID,0,VALID,94.4074,VALID,0,VALID,23.6664,VALID,113,VALID,0.620703,
2009-06-26, 02:46:04,VALID,1003.78,VALID,0,VALID,94.4608,VALID,0,VALID,23.6452,VALID,77,VALID,0.146484,
2009-06-26, 02:47:04,VALID,1003.79,VALID,0,VALID,94.4684,VALID,0,VALID,23.6452,INVALID,360,VALID,0.0046875,
2009-06-26, 02:48:04,VALID,1003.78,VALID,0,VALID,94.4989,VALID,0,VALID,23.6257,VALID,81,VALID,0.142969,
2009-06-26, 02:49:04,VALID,1003.77,VALID,0,VALID,94.5066,VALID,0,VALID,23.6062,VALID,85,VALID,0.410547,
2009-06-26, 02:50:04,VALID,1003.77,VALID,0,VALID,94.5676,VALID,0,VALID,23.6062,VALID,73,VALID,0.362891,
2009-06-26, 02:51:04,VALID,1003.78,VALID,0,VALID,94.5905,VALID,0,VALID,23.5868,VALID,73,VALID,0.286328,
2009-06-26, 02:52:04,VALID,1003.78,VALID,0,VALID,94.6057,VALID,0,VALID,23.5868,VALID,71,VALID,0.487109,
2009-06-26, 02:53:04,VALID,1003.78,VALID,0,VALID,94.6363,VALID,0,VALID,23.5673,VALID,56,VALID,0.35,
2009-06-26, 02:54:04,VALID,1003.76,VALID,0,VALID,94.6286,VALID,0,VALID,23.5673,VALID,56,VALID,0.449219,
2009-06-26, 02:55:04,VALID,1003.73,VALID,0,VALID,94.6897,VALID,0,VALID,23.5885,VALID,55,VALID,0.0429688,
2009-06-26, 02:56:04,VALID,1003.73,VALID,0,VALID,94.6897,VALID,0,VALID,23.5868,VALID,55,VALID,0.00078125,
2009-06-26, 02:57:04,VALID,1003.7,VALID,0,VALID,94.7278,VALID,0,VALID,23.5868,VALID,55,VALID,0.326562,
2009-06-26, 02:58:04,VALID,1003.71,VALID,0,VALID,94.7354,VALID,0,VALID,23.5673,VALID,55,VALID,0.217187,
2009-06-26, 02:59:04,VALID,1003.67,VALID,0,VALID,94.7278,VALID,0,VALID,23.5673,VALID,55,VALID,0.0636719,
2009-06-26, 03:00:04,VALID,1003.67,VALID,0,VALID,94.7583,VALID,0,VALID,23.5478,VALID,55,VALID,0.0234375,
2009-06-26, 03:01:04,VALID,1003.65,VALID,0,VALID,94.7431,VALID,0,VALID,23.5284,VALID,55,VALID,0,
2009-06-26, 03:02:04,VALID,1003.68,VALID,0,VALID,94.7736,VALID,0,VALID,23.5478,VALID,55,VALID,0.150781,
2009-06-26, 03:03:04,VALID,1003.65,VALID,0,VALID,94.8041,VALID,0,VALID,23.5673,VALID,108,VALID,0.849609,
2009-06-26, 03:04:04,VALID,1003.65,VALID,0.5,VALID,94.8194,VALID,0,VALID,23.5673,VALID,122,VALID,0.925781,
2009-06-26, 03:05:04,VALID,1003.68,VALID,0,VALID,94.8194,VALID,0,VALID,23.5673,VALID,122,VALID,0.636328,
2009-06-26, 03:06:04,VALID,1003.67,VALID,0,VALID,94.8499,VALID,0,VALID,23.5673,VALID,108,VALID,0.54375,
2009-06-26, 03:07:04,VALID,1003.66,VALID,0,VALID,94.8346,VALID,0,VALID,23.546,VALID,94,VALID,0.213672,
2009-06-26, 03:08:04,VALID,1003.65,VALID,0,VALID,94.8499,VALID,0,VALID,23.5673,VALID,94,VALID,0,
2009-06-26, 03:09:04,VALID,1003.66,VALID,0,VALID,94.8804,VALID,0,VALID,23.5478,VALID,94,VALID,0.258594,
2009-06-26, 03:10:04,VALID,1003.6,VALID,0,VALID,94.8651,VALID,0,VALID,23.5673,VALID,92,VALID,0.442969,
2009-06-26, 03:11:04,VALID,1003.67,VALID,0,VALID,94.8728,VALID,0,VALID,23.5673,VALID,95,VALID,1.17734,
2009-06-26, 03:12:04,VALID,1003.69,VALID,0,VALID,94.8804,VALID,0,VALID,23.546,VALID,97,VALID,1.11328,
2009-06-26, 03:13:04,VALID,1003.68,VALID,0,VALID,94.8956,VALID,0,VALID,23.5443,VALID,92,VALID,0.868359,
2009-06-26, 03:14:04,VALID,1003.67,VALID,0,VALID,94.8728,VALID,0,VALID,23.5868,VALID,75,VALID,0.515625,
2009-06-26, 03:15:04,VALID,1003.67,VALID,0,VALID,94.8956,VALID,0,VALID,23.5868,VALID,67,VALID,0.208203,
2009-06-26, 03:16:04,VALID,1003.67,VALID,0,VALID,94.8956,VALID,0,VALID,23.585,VALID,67,VALID,0.114453,
2009-06-26, 03:17:04,VALID,1003.63,VALID,0,VALID,94.9185,VALID,0,VALID,23.6257,VALID,49,VALID,0.354688,
2009-06-26, 03:18:04,VALID,1003.62,VALID,0,VALID,94.9414,VALID,0,VALID,23.6239,VALID,49,VALID,0.204688,
2009-06-26, 03:19:04,VALID,1003.56,VALID,0,VALID,94.9567,VALID,0,VALID,23.6434,VALID,28,VALID,0.955859,
2009-06-26, 03:20:04,VALID,1003.55,VALID,0,VALID,94.9414,VALID,0,VALID,23.6239,VALID,42,VALID,0.576563,
2009-06-26, 03:21:04,VALID,1003.48,VALID,0,VALID,94.949,VALID,0,VALID,23.6044,VALID,41,VALID,0.173828,
2009-06-26, 03:22:04,VALID,1003.49,VALID,0,VALID,94.9567,VALID,0,VALID,23.6239,VALID,41,VALID,0.0667969,
2009-06-26, 03:23:04,VALID,1003.46,VALID,0,VALID,94.9567,VALID,0,VALID,23.6239,VALID,41,VALID,0,
2009-06-26, 03:24:04,VALID,1003.46,VALID,0,VALID,94.949,VALID,0,VALID,23.6239,VALID,41,VALID,0,
2009-06-26, 03:25:04,VALID,1003.46,VALID,0,VALID,94.9719,VALID,0.100563,VALID,23.6628,VALID,41,VALID,0,
2009-06-26, 03:26:04,VALID,1003.45,VALID,0,VALID,94.9643,VALID,0,VALID,23.6646,VALID,41,VALID,0.234766,
2009-06-26, 03:27:04,VALID,1003.43,VALID,0,VALID,94.9567,VALID,0,VALID,23.6646,VALID,41,VALID,0,
2009-06-26, 03:28:04,VALID,1003.42,VALID,0,VALID,94.9719,VALID,0,VALID,23.6239,VALID,41,VALID,0.115625,
2009-06-26, 03:29:04,VALID,1003.37,VALID,0,VALID,94.9719,VALID,0,VALID,23.6664,VALID,41,VALID,0,
2009-06-26, 03:30:04,VALID,1003.35,VALID,0,VALID,94.9796,VALID,0,VALID,23.6257,VALID,41,VALID,0.203516,
2009-06-26, 03:31:04,VALID,1003.35,VALID,0,VALID,94.9796,VALID,0,VALID,23.6646,VALID,41,VALID,0.00703125,
2009-06-26, 03:32:04,VALID,1003.32,VALID,0,VALID,94.9719,VALID,0,VALID,23.6452,VALID,41,VALID,0,
2009-06-26, 03:33:04,VALID,1003.33,VALID,0,VALID,94.9872,VALID,0,VALID,23.6452,VALID,41,VALID,0,
2009-06-26, 03:34:04,VALID,1003.32,VALID,0,VALID,94.9719,VALID,0,VALID,23.6664,VALID,41,VALID,0,
2009-06-26, 03:35:04,VALID,1003.33,VALID,0,VALID,94.9796,VALID,0,VALID,23.6452,VALID,41,VALID,0,
2009-06-26, 03:36:04,VALID,1003.31,VALID,0,VALID,94.9872,VALID,0,VALID,23.6257,VALID,41,VALID,0,
2009-06-26, 03:37:04,VALID,1003.27,VALID,0,VALID,95.0024,VALID,0,VALID,23.6257,VALID,41,VALID,0,
2009-06-26, 03:38:04,VALID,1003.28,VALID,0,VALID,94.9796,VALID,0,VALID,23.6062,VALID,41,VALID,0,
2009-06-26, 03:39:04,VALID,1003.3,VALID,0,VALID,94.9948,VALID,0,VALID,23.6275,VALID,41,VALID,0,
2009-06-26, 03:40:04,VALID,1003.31,VALID,0,VALID,94.9948,VALID,0,VALID,23.6062,VALID,41,VALID,0.0210938,
2009-06-26, 03:41:04,VALID,1003.32,VALID,0,VALID,95.0024,VALID,0,VALID,23.5868,VALID,41,VALID,0,
2009-06-26, 03:42:04,VALID,1003.35,VALID,0,VALID,95.0024,VALID,0,VALID,23.585,VALID,41,VALID,0.0128906,
2009-06-26, 03:43:04,VALID,1003.36,VALID,0,VALID,95.0101,VALID,0,VALID,23.585,VALID,41,VALID,0.0984375,
2009-06-26, 03:44:04,VALID,1003.37,VALID,0,VALID,95.0101,VALID,0,VALID,23.5655,VALID,41,VALID,0.339063,
2009-06-26, 03:45:04,VALID,1003.39,VALID,0,VALID,95.0253,VALID,0,VALID,23.5655,VALID,41,VALID,0.277734,
2009-06-26, 03:46:04,VALID,1003.41,VALID,0,VALID,95.033,VALID,0.100563,VALID,23.585,VALID,90,VALID,0.61875,